Weather History for Duesseldorf, Germany

Change the Weather History Date:

Friday, September 6, 2013

  Actual Average Record
Temperature  
Mean Temperature 78 °F -  
Max Temperature 91 °F 64 °F - ()
Min Temperature 66 °F 49 °F - ()
Cooling Degree Days 14    
Growing Degree Days 28 (Base 50)    
Moisture  
Dew Point 58 °F    
Average Humidity 54    
Maximum Humidity 89    
Minimum Humidity 19    
Precipitation  
Precipitation 0.03 in - - ()
Sea Level Pressure  
Sea Level Pressure 29.80 in    
Wind  
Wind Speed 10 mph ()    
Max Wind Speed 25 mph    
Max Gust Speed 15 mph    
Visibility 6.6 miles    
Events Fog , Rain , Thunderstorm    
T = Trace of Precipitation, MM = Missing Value Source: Averaged Metar Reports

Daily Weather History Graph

Daily Weather History Graph

Search for Another Location

Airport:

Trip Planner

Search our weather history database for the weather conditions in past years. The results will help you decide how hot, cold, wet, or windy it might be!

Date:

Astronomy

Sep. 06, 2013 Rise Set
Actual Time 6:53 AM CEST 8:07 PM CEST
Civil Twilight 6:19 AM CEST 8:41 PM CEST
Nautical Twilight 5:38 AM CEST 9:23 PM CEST
Astronomical Twilight 4:52 AM CEST 10:07 PM CEST
Moon 8:02 AM CEST (9/6) 8:07 PM CEST (9/6)
Length of Visible Light 14h 22m
Length of Day
13h 13m
New Moon, 1% of the Moon is Illuminated
Sep 6
New Moon
Sep 12
First Quarter
Sep 19
Full
Sep 27
Last Quarter
Oct 5
New

Hourly Weather History & Observations

Time (CEST) Temp. Heat Index Dew Point Humidity Pressure Visibility Wind Dir Wind Speed Gust Speed Precip Events Conditions
12:00 AM 76 °F - 57 °F 41% 29.85 in 31 mi SSE 11.2 mph - -  
12:20 AM 77.0 °F - 57.2 °F 50% 29.83 in - SSE 11.5 mph - N/A   Clear
12:50 AM 75.2 °F - 57.2 °F 53% 29.83 in - SE 11.5 mph - N/A   Clear
1:00 AM 75 °F - 56 °F 42% 29.84 in 31 mi SE 11.2 mph - -  
1:20 AM 75.2 °F - 57.2 °F 53% 29.83 in - SSE 11.5 mph - N/A   Clear
1:50 AM 75.2 °F - 57.2 °F 53% 29.83 in - SSE 12.7 mph - N/A   Clear
2:00 AM 74 °F - 56 °F 43% 29.83 in 31 mi SSE 11.2 mph - -  
2:20 AM 73.4 °F - 57.2 °F 57% 29.83 in - SSE 12.7 mph - N/A   Clear
2:50 AM 73.4 °F - 55.4 °F 53% 29.80 in - SSE 13.8 mph - N/A   Clear
3:20 AM 73.4 °F - 55.4 °F 53% 29.80 in - SE 12.7 mph - N/A   Clear
3:50 AM 73.4 °F - 55.4 °F 53% 29.80 in - SE 12.7 mph - N/A   Clear
4:20 AM 73.4 °F - 55.4 °F 53% 29.80 in - SE 13.8 mph - N/A   Clear
4:50 AM 73.4 °F - 55.4 °F 53% 29.77 in - SE 13.8 mph - N/A   Clear
5:20 AM 71.6 °F - 55.4 °F 57% 29.77 in - SE 15.0 mph - N/A   Clear
5:50 AM 71.6 °F - 55.4 °F 57% 29.77 in - SE 13.8 mph - N/A   Clear
6:20 AM 71.6 °F - 55.4 °F 57% 29.77 in - SSE 12.7 mph - N/A   Clear
6:50 AM 71.6 °F - 55.4 °F 57% 29.77 in - SSE 13.8 mph - N/A   Clear
7:00 AM 71 °F - 55 °F 48% 29.78 in 31 mi SSE 13.4 mph - -   Scattered Clouds
7:20 AM 71.6 °F - 55.4 °F 57% 29.77 in - SE 13.8 mph - N/A   Clear
7:50 AM 71.6 °F - 55.4 °F 57% 29.80 in - SSE 9.2 mph - N/A   Clear
8:00 AM 71 °F - 55 °F 48% 29.79 in 31 mi SSE 8.9 mph - -   Scattered Clouds
8:20 AM 71.6 °F - 57.2 °F 60% 29.80 in - SSE 11.5 mph - N/A   Clear
8:50 AM 73.4 °F - 57.2 °F 57% 29.80 in - SSE 11.5 mph - N/A   Clear
9:00 AM 74 °F - 56 °F 43% 29.80 in 31 mi SSE 11.2 mph - -   Scattered Clouds
9:20 AM 75.2 °F - 57.2 °F 53% 29.80 in - SSE 12.7 mph - N/A   Clear
9:50 AM 77.0 °F - 57.2 °F 50% 29.77 in - SSE 13.8 mph - N/A   Clear
10:00 AM 76 °F - 56 °F 39% 29.79 in 31 mi SSE 13.4 mph - -  
10:20 AM 78.8 °F - 57.2 °F 47% 29.80 in - SSE 12.7 mph - N/A   Clear
10:50 AM 80.6 °F 80.8 °F 57.2 °F 45% 29.80 in - SSE 9.2 mph - N/A   Clear
11:20 AM 80.6 °F 80.5 °F 55.4 °F 42% 29.77 in - South 11.5 mph - N/A   Clear
11:50 AM 82.4 °F 82.0 °F 57.2 °F 42% 29.77 in - South 10.4 mph - N/A   Clear
12:00 PM 82 °F - 56 °F 31% 29.78 in 31 mi South 11.2 mph - -   Scattered Clouds
12:20 PM 84.2 °F 83.5 °F 57.2 °F 40% 29.77 in - SSE 9.2 mph - N/A   Clear
12:50 PM 84.2 °F 83.5 °F 57.2 °F 40% 29.77 in - South 8.1 mph - N/A   Clear
1:00 PM 84 °F - 54 °F 25% 29.77 in 31 mi South 8.9 mph - -   Scattered Clouds
1:20 PM 86.0 °F 84.9 °F 57.2 °F 37% 29.77 in - SE 8.1 mph - N/A   Clear
1:50 PM 87.8 °F 86.5 °F 57.2 °F 35% 29.77 in - South 6.9 mph - N/A   Clear
2:00 PM 87 °F - 54 °F 23% 29.76 in 31 mi South 6.7 mph - -   Scattered Clouds
2:20 PM 89.6 °F 87.7 °F 55.4 °F 31% 29.74 in - SE 8.1 mph - N/A   Clear
2:50 PM 89.6 °F 87.3 °F 53.6 °F 29% 29.74 in - SSE 10.4 mph - N/A   Clear
3:00 PM 89 °F - 52 °F 19% 29.74 in 31 mi SSE 11.2 mph - -   Scattered Clouds
3:20 PM 87.8 °F 85.7 °F 53.6 °F 31% 29.74 in 6.2 mi SE 9.2 mph - N/A   Scattered Clouds
3:50 PM 78.8 °F - 59.0 °F 51% 29.74 in 5.6 mi South 24.2 mph - N/A Rain , Thunderstorm Heavy Thunderstorms and Rain
4:00 PM 77 °F - 59 °F 43% 29.76 in 6 mi South 24.6 mph - - Rain , Thunderstorm Heavy Thunderstorms and Rain
4:20 PM 75.2 °F - 66.2 °F 73% 29.74 in 6.2 mi NNE 3.5 mph 15.0 mph N/A Rain , Thunderstorm Rain Showers
4:50 PM 75.2 °F - 64.4 °F 69% 29.77 in 6.2 mi WNW 16.1 mph - N/A Rain Light Rain Showers
5:20 PM 77.0 °F - 60.8 °F 57% 29.77 in 6.2 mi NW 11.5 mph - N/A   Scattered Clouds
5:50 PM 77.0 °F - 60.8 °F 57% 29.77 in 6.2 mi North 6.9 mph - N/A   Scattered Clouds
6:20 PM 77.0 °F - 60.8 °F 57% 29.80 in 6.2 mi Variable 3.5 mph - N/A   Scattered Clouds
6:50 PM 75.2 °F - 60.8 °F 61% 29.80 in 6.2 mi North 2.3 mph - N/A   Scattered Clouds
7:00 PM 75 °F - 60 °F 50% 29.80 in 25 mi North 2.2 mph - -   Scattered Clouds
7:20 PM 75.2 °F - 60.8 °F 61% 29.80 in 6.2 mi NNW 2.3 mph - N/A   Scattered Clouds
7:50 PM 73.4 °F - 62.6 °F 69% 29.83 in 5.6 mi West 4.6 mph - N/A Rain , Thunderstorm Thunderstorms and Rain
8:00 PM 73 °F - 62 °F 60% 29.84 in 6 mi West 4.5 mph - - Rain , Thunderstorm Thunderstorms and Rain
8:20 PM 71.6 °F - 64.4 °F 78% 29.83 in 6.2 mi NNW 3.5 mph - N/A   Scattered Clouds
8:50 PM 69.8 °F - 64.4 °F 83% 29.86 in 6.2 mi ENE 2.3 mph - N/A   Partly Cloudy
9:00 PM 67 °F - 65 °F 89% 29.86 in 12 mi ENE 2.2 mph - - Thunderstorm Light Thunderstorm
9:20 PM 69.8 °F - 64.4 °F 83% 29.86 in - NE 3.5 mph - N/A   Clear
9:50 PM 68.0 °F - 64.4 °F 88% 29.86 in - ENE 3.5 mph - N/A   Clear
10:00 PM 67 °F - 64 °F 86% 29.88 in 9 mi ENE 2.2 mph - -   Scattered Clouds
10:20 PM 68.0 °F - 62.6 °F 83% 29.89 in - East 3.5 mph - N/A   Clear
10:50 PM 66.2 °F - 62.6 °F 88% 29.89 in 6.2 mi East 3.5 mph - N/A Fog Shallow Fog
11:20 PM 66.2 °F - 62.6 °F 88% 29.89 in 6.2 mi East 3.5 mph - N/A Fog Shallow Fog
11:50 PM 66.2 °F - 62.6 °F 88% 29.89 in 6.2 mi ESE 3.5 mph - N/A Fog Shallow Fog